This demonstration page uses our WeatherBlox Daily Observations layout. Learn more.

Left ArrowRight Arrow

Hourly Observations for June 17, 2015

Temp ( °F °C ) Dew Point ( °F °C ) Humidity (%) Winds ( mph kmh ) Pressure ( in mb ) Visibility ( mi km ) Precip ( " mm )
12:59 am 00:59 Mostly Cloudy 81 27.2 77 25 88 88 NW 10 17 30.01 1016 10 16 0.00 0.03
1:59 am 01:59 Partly Cloudy 80 26.7 76 24.4 87 87 NW 13 20 30.00 1016 10 16 0.00 0.00
2:59 am 02:59 Mostly Clear 77 25 71 21.7 82 82 N 13 20 30.01 1016 10 16 0.00 0.00
3:59 am 03:59 Clear 78 25.6 71 21.7 79 79 N 16 26 30.01 1016 10 16 0.00 0.00
4:59 am 04:59 Clear 78 25.6 71 21.7 79 79 NE 13 20 30.03 1017 10 16 0.00 0.00
5:59 am 05:59 Partly Cloudy 78 25.6 73 22.8 85 85 NE 12 19 30.05 1018 10 16 0.00 0.00
6:59 am 06:59 Partly Cloudy 79 26.1 72 22.2 79 79 NE 10 17 30.06 1018 10 16 0.00 0.00
7:59 am 07:59 Partly Cloudy 80 26.7 74 23.3 82 82 ENE 8 13 30.08 1019 10 16 0.00 0.00
8:59 am 08:59 Partly Cloudy 82 27.8 74 23.3 77 77 ENE 8 13 30.10 1019 10 16 0.00 0.00
9:59 am 09:59 Mostly Cloudy 83 28.3 74 23.3 74 74 E 14 22 30.10 1019 10 16 0.00 0.00
10:59 am 10:59 Mostly Cloudy 82 27.8 74 23.3 77 77 E 12 19 30.12 1020 10 16 0.00 0.00
11:59 am 11:59 Partly Cloudy 83 28.3 68 20 61 61 ENE 14 22 30.13 1020 10 16 0.00 0.00
12:59 pm 12:59 Partly Cloudy 83 28.3 68 20 61 61 E 13 20 30.13 1020 10 16 0.00 0.00
1:59 pm 13:59 Partly Cloudy 84 28.9 69 20.6 61 61 E 12 19 30.11 1020 10 16 0.00 0.00
2:59 pm 14:59 Partly Cloudy 82 27.8 71 21.7 69 69 ENE 8 13 30.11 1020 10 16 0.00 0.00
3:59 pm 15:59 Partly Cloudy 84 28.9 72 22.2 67 67 ENE 9 15 30.10 1019 10 16 0.00 0.00
4:59 pm 16:59 Partly Cloudy 84 28.9 73 22.8 70 70 E 10 17 30.09 1019 10 16 0.00 0.00
5:59 pm 17:59 Partly Cloudy 85 29.4 72 22.2 65 65 E 10 17 30.08 1019 9 14 0.00 0.00
6:59 pm 18:59 Partly Cloudy 84 28.9 71 21.7 65 65 E 9 15 30.07 1018 9 14 0.00 0.00
7:59 pm 19:59 Partly Cloudy 77 25 68 20 74 74 E 7 11 30.08 1019 8 13 0.00 0.00
8:59 pm 20:59 Partly Cloudy 76 24.4 68 20 77 77 E 8 13 30.08 1019 10 16 0.00 0.00
9:59 pm 21:59 Partly Cloudy 74 23.3 67 19.4 79 79 SE 6 9 30.07 1018 9 14 0.00 0.00
10:59 pm 22:59 Partly Cloudy 75 23.9 68 20 79 79 SE 7 11 30.08 1019 9 14 0.00 0.00
11:59 pm 23:59 Mostly Cloudy 75 23.9 68 20 79 79 SSE 3 6 30.07 1018 10 16 0.00 0.00

Powered by AerisWeather